Location: Unspecified
(19.9522°N, 0.0000°E)
Time: 05:05:43
(UTC+00:00)

Explorer 11/Cluster Stage 4 - All Passes

Search period start: 04 April 2026 00:00
Search period end: 14 April 2026 00:00
Orbit: 463 x 1175 km, 28.8° (Epoch: 29 March)

Date Brightness Start Highest point End Pass type
(mag) Time Alt. Az. Time Alt. Az. Time Alt. Az.
4 Apr - 00:10:40 10° SW 00:11:16 10° SSW 00:11:52 10° SSW night (unlit)
4 Apr - 12:53:53 10° SSW 12:59:57 26° SSE 13:05:32 10° E daylight
4 Apr - 14:40:43 10° WSW 14:48:01 73° SSE 14:54:10 10° ENE daylight
4 Apr - 16:29:46 10° W 16:36:07 48° NNW 16:41:18 10° ENE daylight
4 Apr - 18:19:30 10° WNW 18:24:20 29° N 18:28:24 10° ENE daylight
4 Apr - 20:08:09 10° NW 20:12:28 36° N 20:16:09 10° E visible
4 Apr - 21:55:57 10° WNW 21:59:56 64° SSW 22:03:31 10° ESE night (unlit)
5 Apr - 12:28:52 10° SSW 12:35:08 27° SSE 12:40:59 10° E daylight
5 Apr - 14:15:43 10° WSW 14:23:15 74° SSE 14:29:41 10° ENE daylight
5 Apr - 16:04:48 10° W 16:11:26 49° NNW 16:16:56 10° ENE daylight
5 Apr - 17:54:34 10° WNW 17:59:47 31° N 18:04:08 10° ENE daylight
5 Apr - 19:43:20 10° WNW 19:48:00 38° N 19:51:53 10° E visible
5 Apr - 21:31:19 10° WNW 21:35:30 63° SSW 21:39:10 10° SE visible
6 Apr - 12:03:54 10° SSW 12:10:16 28° SSE 12:16:22 10° E daylight
6 Apr - 13:50:45 10° WSW 13:58:26 76° SSE 14:05:09 10° ENE daylight
6 Apr - 15:39:48 10° W 15:46:43 50° NNW 15:52:31 10° ENE daylight
6 Apr - 17:29:36 10° WNW 17:35:11 33° N 17:39:50 10° ENE daylight
6 Apr - 19:18:29 10° WNW 19:23:30 41° NNE 19:27:38 10° E visible
6 Apr - 21:06:37 10° WNW 21:11:04 62° SSW 21:14:51 10° SE visible
7 Apr - 11:38:59 10° SSW 11:45:25 28° SSE 11:51:41 10° E daylight
7 Apr - 13:25:47 10° WSW 13:33:34 77° SSE 13:40:34 10° ENE daylight
7 Apr - 15:14:49 10° W 15:21:58 51° NNW 15:28:03 10° ENE daylight
7 Apr - 17:04:36 10° WNW 17:10:33 35° N 17:15:30 10° ENE daylight
7 Apr - 18:53:34 10° WNW 18:58:57 43° NNE 19:03:21 10° E visible
7 Apr - 20:41:51 10° WNW 20:46:36 62° SSW 20:50:32 10° SE visible
8 Apr - 11:14:06 10° SSW 11:20:32 29° SSE 11:26:56 10° E daylight
8 Apr - 13:00:51 10° WSW 13:08:40 78° SSE 13:15:55 10° ENE daylight
8 Apr - 14:49:50 10° W 14:57:10 52° NNW 15:03:32 10° ENE daylight
8 Apr - 16:39:36 10° WNW 16:45:52 36° N 16:51:08 10° ENE daylight
8 Apr - 18:28:37 10° WNW 18:34:22 46° NNE 18:39:03 10° E visible
8 Apr - 20:17:02 10° WNW 20:22:05 62° SSW 20:26:13 10° SE visible
8 Apr - 22:08:12 10° SW 22:08:53 10° SW 22:09:33 10° SSW night (unlit)
9 Apr - 10:49:16 10° SSW 10:55:38 29° SSE 11:02:08 10° E daylight
9 Apr - 12:35:57 10° WSW 12:43:46 79° SSE 12:51:13 10° ENE daylight
9 Apr - 14:24:51 10° W 14:32:20 52° NNW 14:38:58 10° ENE daylight
9 Apr - 16:14:35 10° WNW 16:21:08 38° N 16:26:43 10° ENE daylight
9 Apr - 18:03:38 10° WNW 18:09:45 48° NNE 18:14:43 10° E daylight
9 Apr - 19:52:10 10° WNW 19:57:32 62° SSW 20:01:54 10° SE visible
9 Apr - 21:43:10 10° SW 21:44:22 11° SW 21:45:31 10° SSW visible
10 Apr - 10:24:29 10° SSW 10:30:44 30° SSE 10:37:17 10° E daylight
10 Apr - 12:11:05 10° WSW 12:18:50 80° SSE 12:26:27 10° ENE daylight
10 Apr - 13:59:54 10° W 14:07:28 52° NNW 14:14:21 10° ENE daylight
10 Apr - 15:49:33 10° WNW 15:56:23 39° N 16:02:15 10° ENE daylight
10 Apr - 17:38:38 10° WNW 17:45:05 51° NNE 17:50:21 10° E daylight
10 Apr - 19:27:15 10° WNW 19:32:58 62° SSW 19:37:33 10° SE visible
10 Apr - 21:18:10 10° WSW 21:19:49 12° SW 21:21:24 10° SSW visible
11 Apr - 09:59:45 10° SSW 10:05:51 30° SSE 10:12:22 10° E daylight
11 Apr - 11:46:15 10° WSW 11:53:53 81° SSE 12:01:38 10° ENE daylight
11 Apr - 13:34:58 10° W 13:42:34 52° NNW 13:49:41 10° ENE daylight
11 Apr - 15:24:32 10° WNW 15:31:34 40° N 15:37:45 10° ENE daylight
11 Apr - 17:13:36 10° WNW 17:20:22 53° NNE 17:25:57 10° E daylight
11 Apr - 19:02:17 10° WNW 19:08:20 62° SSW 19:13:12 10° SE visible
11 Apr - 20:53:08 10° WSW 20:55:15 13° SW 20:57:13 10° SSW visible
12 Apr - 09:35:04 10° SSW 09:40:58 29° SSE 09:47:25 10° E daylight
12 Apr - 11:21:28 10° WSW 11:28:57 82° SSE 11:36:46 10° ENE daylight
12 Apr - 13:10:05 10° W 13:17:39 52° NNW 13:24:57 10° ENE daylight
12 Apr - 14:59:32 10° WNW 15:06:43 41° N 15:13:10 10° ENE daylight
12 Apr - 16:48:33 10° WNW 16:55:37 55° NNE 17:01:30 10° E daylight
12 Apr - 18:37:17 10° WNW 18:43:40 62° SSW 18:48:48 10° SE visible
12 Apr - 20:28:06 10° WSW 20:30:39 13° SW 20:32:59 10° S visible
13 Apr - 09:10:26 10° SSW 09:16:07 29° SSE 09:22:25 10° E daylight
13 Apr - 10:56:44 10° WSW 11:04:00 83° SSE 11:11:51 10° ENE daylight
13 Apr - 12:45:14 10° W 12:52:43 52° NNW 13:00:09 10° ENE daylight
13 Apr - 14:34:34 10° WNW 14:41:51 42° N 14:48:32 10° ENE daylight
13 Apr - 16:23:31 10° WNW 16:30:48 56° NNE 16:37:01 10° E daylight
13 Apr - 18:12:16 10° WNW 18:18:56 62° SSW 18:24:23 10° SE daylight
13 Apr - 20:03:02 10° WSW 20:06:00 14° SW 20:08:43 10° S visible
